Weather reports worldwide

Advertisment
Nürburg/Barweiler, Germany (10506): temperature & dewpoint: 18.06.2018 11:00:00 - 24.06.2018 11:00:00 (CEST)Nürburg/Barweiler, Germany (10506): temperature 5cm & temperature -5cm: 18.06.2018 11:00:00 - 24.06.2018 11:00:00 (CEST)Nürburg/Barweiler, Germany (10506): temperature -20cm & temperature -100cm: 18.06.2018 11:00:00 - 24.06.2018 11:00:00 (CEST)Nürburg/Barweiler, Germany (10506): wind speed & gusts: 18.06.2018 11:00:00 - 24.06.2018 11:00:00 (CEST)Nürburg/Barweiler, Germany (10506): wind direction: 18.06.2018 11:00:00 - 24.06.2018 11:00:00 (CEST)Nürburg/Barweiler, Germany (10506): reduced air pressure: 18.06.2018 11:00:00 - 24.06.2018 11:00:00 (CEST)Nürburg/Barweiler, Germany (10506): visibility: 18.06.2018 11:00:00 - 24.06.2018 11:00:00 (CEST)Nürburg/Barweiler, Germany (10506): sunshine duration: 18.06.2018 11:00:00 - 24.06.2018 11:00:00 (CEST)Nürburg/Barweiler, Germany (10506): precipitation: 18.06.2018 11:00:00 - 24.06.2018 11:00:00 (CEST)
Date & Time tt [°C] td [°C] tt 5cm [°C] tt -5cm [°C] tt -20cm [°C] tt -100cm [°C] ff [km/h] ff [kn] fx [km/h] fx [kn] dd ppp [hPa] vv [km] sd [min] rr [mm]
24.06.2018 11:00:00 14,3 7,1 17,4 19,3 14,7 15,2 7 4 20 11 NW 1022,7 14 42 0,0
24.06.2018 10:00:00 13,8 8,6 16,9 18,3 14,5 15,2 9 5 16 9 NNW 1022,8 11 57 0,0
24.06.2018 09:00:00 12,3 7,8 14,3 15,6 14,5 15,2 3 2 9 5 NW 1023,0 13 44 0,0
24.06.2018 08:00:00 10,8 7,8 11,2 12,9 14,6 15,2 3 2 6 3 N 1023,3 9 25 0,0
24.06.2018 07:00:00 10,0 8,7 9,6 12,2 14,7 15,2 2 1 9 5 S 1023,1 6 0 0,0
24.06.2018 06:00:00 10,2 8,1 9,6 12,1 14,8 15,2 6 3 8 5 S 1022,9 10 0 0,0
24.06.2018 05:00:00 10,0 8,2 9,4 12,2 14,9 15,2 6 3 9 5 WSW 1023,1 9 0 0,1
24.06.2018 04:00:00 10,3 8,2 9,5 12,3 15,1 15,2 5 3 9 5 SW 1023,6 9 0 0,0
24.06.2018 03:00:00 9,9 7,7 9,5 12,3 15,3 15,2 5 3 8 5 SSW 1024,1 12 0 0,0
24.06.2018 02:00:00 9,9 7,7 9,2 12,5 15,4 15,2 5 3 9 5 SSW 1024,9 13 0 0,0
24.06.2018 01:00:00 10,5 7,8 9,7 12,7 15,6 15,2 6 4 9 5 SSW 1025,1 15 0 0,0
24.06.2018 00:00:00 10,6 7,8 9,4 13,2 15,7 15,3 5 3 7 4 SSW 1025,3 15 0 0,0
23.06.2018 23:00:00 11,2 7,9 9,9 13,8 15,9 15,3 4 2 8 4 WSW 1025,2 18 0 0,0
23.06.2018 22:00:00 11,6 7,7 9,7 14,6 15,9 15,3 6 3 12 6 WNW 1025,2 21 0 0,0
23.06.2018 21:00:00 12,8 7,3 11,9 15,5 15,9 15,3 11 6 24 13 NW 1025,0 21 43 0,0
23.06.2018 20:00:00 13,1 7,0 13,1 16,5 15,8 15,3 13 7 27 14 N 1025,1 30 39 0,0
23.06.2018 19:00:00 13,6 7,5 15,8 16,8 15,8 15,3 11 6 21 12 NW 1025,3 15 36 0,0
23.06.2018 18:00:00 11,8 7,8 12,2 16,3 15,7 15,3 11 6 17 9 N 1026,5 19 0 0,0
23.06.2018 17:00:00 12,0 7,6 12,9 16,8 15,7 15,3 9 5 21 11 N 1026,6 22 0 0,0
23.06.2018 16:00:00 12,4 7,6 14,2 16,8 15,5 15,3 15 8 26 14 N 1026,9 21 0 0,0
23.06.2018 15:00:00 11,9 7,1 13,0 17,4 15,3 15,3 13 7 26 14 NNW 1027,3 20 0 0,0
23.06.2018 14:00:00 12,2 6,5 13,9 18,4 15,0 15,3 16 9 27 14 NNW 1027,4 24 1 0,0
23.06.2018 13:00:00 11,8 6,7 13,8 18,7 14,7 15,3 13 7 23 12 NW 1027,4 16 15 0,0
23.06.2018 12:00:00 11,7 6,7 14,6 17,1 14,5 15,3 11 6 24 13 NNW 1027,4 25 0 0,0
23.06.2018 11:00:00 11,6 4,0 15,0 16,5 14,3 15,3 9 5 18 10 NNW 1027,4 24 6 0,0
23.06.2018 10:00:00 10,2 4,3 12,9 14,8 14,3 15,3 12 6 24 13 NNW 1027,7 21 38 0,0
23.06.2018 09:00:00 8,8 4,7 10,7 12,1 14,4 15,3 17 9 31 17 NNW 1028,1 17 16 0,0
23.06.2018 08:00:00 7,8 4,9 8,3 11,6 14,5 15,3 19 11 32 17 NNW 1028,2 17 13 0,0
23.06.2018 07:00:00 7,6 5,5 7,7 10,9 14,6 15,3 16 9 32 17 NNW 1028,2 11 0 0,0
23.06.2018 06:00:00 7,5 5,8 7,5 10,9 14,8 15,3 13 7 23 12 N 1028,2 10 0 0,0
23.06.2018 05:00:00 7,7 6,0 7,7 11,0 14,9 15,3 11 6 24 13 NNW 1027,7 10 0 0,0
23.06.2018 04:00:00 7,7 6,1 7,4 11,0 15,2 15,3 7 4 16 9 NNW 1028,0 11 0 0,0
23.06.2018 03:00:00 7,6 6,1 7,4 11,0 15,4 15,3 8 5 14 8 NW 1028,1 11 0 0,0
23.06.2018 02:00:00 8,2 6,0 7,2 11,3 15,6 15,3 7 4 16 9 WNW 1028,3 15 0 0,0
23.06.2018 01:00:00 8,4 6,2 6,6 11,4 15,9 15,3 7 4 21 11 NNW 1028,4 17 0 0,0
23.06.2018 00:00:00 8,7 5,8 7,4 12,1 16,1 15,3 10 5 19 11 WNW 1028,3 17 0 0,0
22.06.2018 23:00:00 9,4 5,7 7,8 13,0 16,2 15,3 12 7 24 13 NNW 1028,0 27 0 0,0
22.06.2018 22:00:00 10,5 5,9 9,6 14,2 16,3 15,3 12 6 26 14 NW 1027,3 28 2 0,0
22.06.2018 21:00:00 11,2 6,4 10,6 15,1 16,3 15,3 10 5 27 15 NW 1027,0 28 0 0,0
22.06.2018 20:00:00 12,0 5,8 11,8 16,0 16,3 15,3 15 8 31 17 NW 1026,7 35 3 0,0
22.06.2018 19:00:00 12,5 5,9 13,2 16,4 16,2 15,3 13 7 31 17 NW 1026,5 32 0 0,0
22.06.2018 18:00:00 13,2 5,5 15,0 16,9 16,1 15,3 16 9 34 18 NW 1026,1 30 6 0,0
22.06.2018 17:00:00 12,6 4,7 13,4 17,4 15,9 15,3 18 10 29 16 NNW 1026,1 29 10 0,0
22.06.2018 16:00:00 12,8 4,8 15,9 16,8 15,8 15,3 17 9 33 18 WNW 1025,9 26 3 0,0
22.06.2018 15:00:00 12,1 4,3 13,9 16,7 15,7 15,3 18 10 35 19 NW 1026,1 25 3 0,0
22.06.2018 14:00:00 11,7 4,5 13,0 15,8 15,6 15,3 17 9 34 18 WNW 1026,0 27 4 0,0
22.06.2018 13:00:00 10,9 4,5 11,9 14,9 15,6 15,3 16 9 42 23 WNW 1026,0 23 0 0,0
22.06.2018 12:00:00 10,8 4,0 11,5 14,6 15,6 15,3 24 13 42 23 NNW 1026,0 28 1 0,0
22.06.2018 11:00:00 10,3 4,3 10,9 13,8 15,6 15,3 19 11 40 21 NW 1025,8 34 0 0,0
22.06.2018 10:00:00 9,8 4,1 10,6 13,2 15,7 15,2 23 13 46 25 NW 1025,8 23 1 0,0
22.06.2018 09:00:00 9,4 4,6 10,0 13,1 15,8 15,2 16 8 36 19 NW 1025,6 24 11 0,0
22.06.2018 08:00:00 8,9 5,0 9,9 12,3 16,0 15,2 16 9 30 16 WNW 1025,4 23 43 0,0
22.06.2018 07:00:00 7,5 4,1 7,3 11,3 16,3 15,2 10 6 19 10 WNW 1025,3 19 48 0,0
22.06.2018 06:00:00 6,6 4,0 5,5 11,1 16,6 15,2 10 6 23 12 WNW 1025,6 25 0 0,0
22.06.2018 05:00:00 7,0 3,9 6,7 11,5 16,9 15,2 9 5 19 10 WNW 1025,8 24 0 0,0
22.06.2018 04:00:00 6,8 3,7 6,7 11,4 17,3 15,2 7 4 16 9 W 1025,8 24 0 0,0
22.06.2018 03:00:00 6,1 3,7 4,7 11,4 17,6 15,2 10 5 16 9 W 1026,0 20 0 0,0
22.06.2018 02:00:00 6,6 3,8 5,2 12,1 18,0 15,2 13 7 21 11 W 1026,2 21 0 0,0
22.06.2018 01:00:00 7,7 3,9 6,3 12,8 18,4 15,2 15 8 23 12 NW 1025,8 24 0 0,0
22.06.2018 00:00:00 8,4 4,0 6,9 13,6 18,8 15,2 14 7 31 17 NW 1025,6 27 0 0,0
21.06.2018 23:00:00 9,0 4,1 7,6 14,7 19,1 15,1 17 9 30 16 NNW 1025,1 22 0 0,0
21.06.2018 22:00:00 9,8 3,4 8,5 16,1 19,4 15,1 11 6 33 18 NW 1024,3 32 27 0,0
21.06.2018 21:00:00 11,6 2,8 11,0 17,6 19,6 15,1 15 8 40 22 NW 1023,6 26 27 0,0
21.06.2018 20:00:00 11,8 3,6 11,9 19,0 19,7 15,1 21 11 39 21 NNW 1023,3 26 2 0,0
21.06.2018 19:00:00 13,6 2,7 15,2 20,6 19,7 15,1 21 11 45 24 NNW 1022,3 24 36 0,0
21.06.2018 18:00:00 14,5 3,1 16,2 21,4 19,5 15,1 18 10 41 22 NW 1021,4 28 26 0,0
21.06.2018 17:00:00 15,7 3,4 18,7 22,7 19,3 15,1 20 11 41 22 NW 1020,5 20 46 0,0
21.06.2018 16:00:00 15,5 3,1 17,8 23,1 19,1 15,1 22 12 47 26 NNW 1020,0 23 41 0,0
21.06.2018 15:00:00 16,2 4,5 20,0 23,0 18,9 15,1 21 12 38 21 WNW 1019,4 17 48 0,0
21.06.2018 14:00:00 16,0 5,9 19,9 22,3 18,8 15,1 20 11 45 24 WNW 1019,1 17 51 0,0
21.06.2018 13:00:00 15,3 8,7 16,3 20,4 18,8 15,1 18 10 52 28 WNW 1018,7 29 29 0,0
21.06.2018 12:00:00 15,4 10,7 14,9 19,4 18,8 15,1 20 11 39 21 WNW 1018,1 16 2 0,2
21.06.2018 11:00:00 14,3 12,7 14,2 18,8 18,8 15,1 14 8 31 17 WNW 1017,8 5 0 0,1
21.06.2018 10:00:00 15,6 12,6 15,1 19,8 18,8 15,1 15 8 32 17 WNW 1016,6 4,2 14 0,0
21.06.2018 09:00:00 17,2 12,9 18,9 19,5 18,9 15,1 17 9 32 17 WSW 1015,6 20 57 0,0
21.06.2018 08:00:00 16,1 12,5 16,2 18,1 19,1 15,1 13 7 21 11 W 1015,9 22 59 0,0
21.06.2018 07:00:00 15,4 12,0 15,0 16,9 19,4 15,0 9 5 16 8 SW 1016,3 11 50 0,0
21.06.2018 06:00:00 14,9 12,4 13,5 16,4 19,7 15,0 10 5 16 8 SSW 1016,1 15 0 0,0
21.06.2018 05:00:00 15,6 12,6 13,9 17,1 20,0 15,0 8 5 14 8 SSW 1016,5 17 0 0,0
21.06.2018 04:00:00 16,5 12,9 15,2 17,8 20,3 15,0 8 5 16 9 WSW 1017,2 21 0 0,0
21.06.2018 03:00:00 16,8 13,2 14,7 18,1 20,6 15,0 6 3 9 5 WSW 1017,5 25 0 0,0
21.06.2018 02:00:00 17,7 13,6 15,4 18,8 20,9 15,0 6 3 10 5 W 1017,6 27 0 0,0
21.06.2018 01:00:00 18,2 14,0 16,4 19,7 21,2 15,0 6 3 9 5 WSW 1017,9 35 0 0,0
21.06.2018 00:00:00 18,6 14,0 16,2 20,6 21,4 15,0 4 2 9 5 NNW 1018,2 37 0 0,0
20.06.2018 23:00:00 20,2 13,8 17,1 21,7 21,6 15,0 6 3 9 5 NE 1018,0 47 0 0,0
20.06.2018 22:00:00 21,1 14,0 18,5 23,1 21,7 15,0 5 3 13 7 NE 1017,5 45 10 0,0
20.06.2018 21:00:00 22,6 13,4 20,8 24,9 21,7 15,0 7 4 13 7 WNW 1017,4 41 50 0,0
20.06.2018 20:00:00 25,8 12,7 25,3 26,5 21,5 15,0 6 4 12 7 WSW 1016,9 50 60 0,0
20.06.2018 19:00:00 26,0 12,8 27,4 28,0 21,1 15,0 8 4 16 8 WSW 1017,4 32 59 0,0
20.06.2018 18:00:00 25,9 12,9 28,6 29,1 20,7 15,0 7 4 18 10 SW 1017,7 24 59 0,0
20.06.2018 17:00:00 25,3 12,1 29,4 29,8 20,1 15,0 6 4 18 10 W 1018,5 22 60 0,0
20.06.2018 16:00:00 24,8 12,9 29,3 29,9 19,5 15,0 7 4 20 11 NW 1019,0 23 60 0,0
20.06.2018 15:00:00 24,0 12,1 28,8 29,2 18,9 15,0 8 4 20 11 W 1019,6 33 59 0,0
20.06.2018 14:00:00 23,6 12,8 28,2 28,2 18,4 15,0 10 5 21 11 W 1020,1 18 56 0,0
20.06.2018 13:00:00 22,9 13,9 27,2 26,8 17,9 15,0 6 3 14 7 W 1020,8 53 49 0,0
20.06.2018 12:00:00 21,5 13,8 25,8 24,2 17,6 15,0 10 5 18 10 SW 1021,5 24 40 0,0
20.06.2018 11:00:00 21,4 13,4 25,7 22,5 17,3 15,0 8 4 20 11 S 1021,6 28 39 0,0
20.06.2018 10:00:00 19,8 14,3 21,5 20,3 17,2 15,0 8 5 17 9 SSW 1022,1 40 16 0,0
20.06.2018 09:00:00 19,9 14,4 22,0 19,3 17,1 15,0 9 5 16 9 SSE 1022,1 26 56 0,0
20.06.2018 08:00:00 17,4 14,6 17,8 17,1 17,2 15,0 4 2 11 6 SSE 1022,6 10 38 0,0
20.06.2018 07:00:00 16,0 13,7 15,0 16,1 17,4 15,0 6 3 14 7 S 1022,9 7 32 0,0
20.06.2018 06:00:00 14,9 13,9 13,5 15,8 17,5 15,0 6 3 9 5 S 1023,3 9 0 0,0
20.06.2018 05:00:00 15,5 14,4 14,9 16,5 17,6 15,0 0 0 8 4 N 1023,6 21 0 0,0
20.06.2018 04:00:00 15,3 14,3 14,9 16,6 17,7 15,0 3 2 6 3 S 1023,7 14 0 0,0
20.06.2018 03:00:00 16,0 14,6 15,2 16,7 17,9 15,0 4 2 7 4 SSE 1023,9 21 0 0,0
20.06.2018 02:00:00 15,9 14,7 15,0 16,7 18,0 15,0 0 0 6 4 N 1024,5 20 0 0,0
20.06.2018 01:00:00 15,6 14,6 13,7 17,3 18,2 15,0 2 1 6 3 NE 1024,5 20 0 0,0
20.06.2018 00:00:00 16,4 14,7 15,5 18,0 18,3 15,0 4 2 8 4 ENE 1024,5 25 0 0,0
19.06.2018 23:00:00 16,8 14,7 15,9 18,6 18,3 15,0 5 3 8 4 ENE 1024,5 36 0 0,0
19.06.2018 22:00:00 17,5 14,6 16,4 19,4 18,3 15,0 5 3 7 4 NNE 1023,9 46 0 0,0
19.06.2018 21:00:00 18,4 14,2 18,1 20,3 18,2 15,0 5 3 14 7 W 1023,9 55 0 0,0
19.06.2018 20:00:00 19,3 14,2 19,6 21,0 18,1 15,0 4 2 11 6 NW 1023,7 61 0 0,0
19.06.2018 19:00:00 19,3 13,6 19,5 21,7 17,8 15,0 8 5 20 11 WNW 1023,8 56 14 0,0
19.06.2018 18:00:00 20,3 13,2 22,2 22,1 17,6 15,0 8 4 18 10 WNW 1023,7 33 11 0,0
19.06.2018 17:00:00 19,8 13,8 22,6 21,5 17,3 15,0 6 4 21 12 WNW 1023,9 45 0 0,0
19.06.2018 16:00:00 18,9 13,9 20,8 20,9 17,1 15,0 10 5 18 10 WSW 1024,3 43 1 0,0
19.06.2018 15:00:00 18,6 14,3 20,2 20,4 16,9 15,0 9 5 18 10 W 1024,2 41 0 0,0
19.06.2018 14:00:00 18,2 13,5 20,8 19,9 16,7 15,0 7 4 14 8 SW 1024,3 35 0 0,0
19.06.2018 13:00:00 17,6 13,7 18,7 19,4 16,5 15,0 2 1 - - S 1024,6 38 0 0,0
19.06.2018 12:00:00 17,0 13,6 18,5 18,8 16,3 15,0 - - - - - 1024,4 29 0 0,0
19.06.2018 11:00:00 16,8 13,4 18,0 18,0 16,2 15,0 9 5 16 9 WSW 1024,2 31 0 0,0
19.06.2018 10:00:00 16,2 13,1 17,8 17,2 16,1 15,0 10 5 16 9 WSW 1024,2 30 1 0,0
19.06.2018 09:00:00 14,9 12,8 16,0 15,4 16,2 15,0 9 5 17 9 WSW 1024,2 16 0 0,0
19.06.2018 08:00:00 13,8 12,2 13,9 14,6 16,3 15,0 8 4 12 6 SW 1024,3 10 0 0,0
19.06.2018 07:00:00 13,5 11,7 13,4 14,1 16,5 15,0 7 4 13 7 SSW 1023,9 15 0 0,0
19.06.2018 06:00:00 13,1 11,2 12,7 13,6 16,7 15,0 9 5 16 9 WSW 1023,7 16 0 0,0
19.06.2018 05:00:00 12,8 11,1 11,3 14,0 16,9 15,1 11 6 19 11 SW 1023,4 14 0 0,0
19.06.2018 04:00:00 13,7 11,4 12,4 14,4 17,0 15,1 15 8 24 13 WSW 1023,2 15 0 0,0
19.06.2018 03:00:00 14,3 11,9 12,8 14,9 17,2 15,1 11 6 20 11 WSW 1022,9 21 0 0,0
19.06.2018 02:00:00 15,2 13,0 14,0 15,4 17,4 15,1 13 7 23 12 W 1022,8 25 0 0,0
19.06.2018 01:00:00 15,0 13,2 13,5 15,6 17,6 15,1 11 6 18 10 SW 1022,4 22 0 0,0
19.06.2018 00:00:00 15,4 13,2 14,2 16,1 17,7 15,1 13 7 19 10 SW 1022,4 28 0 0,0
18.06.2018 23:00:00 15,6 13,3 14,0 16,8 17,8 15,1 10 6 16 9 SW 1022,0 27 0 0,0
18.06.2018 22:00:00 16,4 13,4 15,0 17,8 17,8 15,1 11 6 18 10 SW 1021,5 26 11 0,0
18.06.2018 21:00:00 17,9 13,4 17,0 18,9 17,8 15,1 9 5 22 12 SW 1021,0 23 19 0,0
18.06.2018 20:00:00 18,4 13,2 18,5 19,7 17,7 15,1 11 6 23 13 SW 1020,9 27 25 0,0
18.06.2018 19:00:00 18,6 13,1 19,3 20,0 17,6 15,1 13 7 24 13 WSW 1020,8 34 7 0,0
18.06.2018 18:00:00 18,3 13,0 19,2 20,0 17,5 15,1 13 7 23 13 SW 1021,2 28 6 0,0
18.06.2018 17:00:00 17,8 12,9 18,7 19,4 17,3 15,1 11 6 20 11 SW 1021,6 30 0 0,0
18.06.2018 16:00:00 17,8 12,5 18,4 20,0 17,1 15,1 10 6 26 14 SW 1021,7 30 0 0,0
18.06.2018 15:00:00 18,2 11,8 19,2 21,0 16,8 15,1 14 7 29 15 WSW 1021,2 37 0 0,0
18.06.2018 14:00:00 18,5 11,4 20,3 20,8 16,6 15,1 14 8 27 15 SW 1021,1 35 6 0,0
18.06.2018 13:00:00 17,2 11,1 18,1 19,7 16,3 15,1 15 8 31 17 WSW 1021,3 34 0 0,0
18.06.2018 12:00:00 17,4 9,9 19,3 20,2 16,0 15,1 16 9 27 14 WSW 1021,3 19 33 0,0
18.06.2018 11:00:00 16,6 10,6 18,9 18,0 15,9 15,1 13 7 27 15 SW 1021,3 25 12 0,0

tt = temperature
td = dewpoint
tt 5cm = temperature 5cm
tt -5cm = temperature -5cm
tt -20cm = temperature -20cm
tt -100cm = temperature -100cm
ff = wind speed
fx = gusts
dd = wind direction
ppp = reduced air pressure
vv = visibility
sd = sunshine duration
rr = precipitation

Next stations